This is the latest recevied weather packets stored in our database for station/object WX5HOT. If no packets are shown the sender has not sent any weather packets the latest 10 day(s).
| Time | Temp. | Humidity | Pressure | Rain* | Wind** | Luminosity | Snow |
|---|---|---|---|---|---|---|---|
| 1777653180 | 13.33° C | 60% | 1068.6 hPa | 0 mm | - | 292 W/m² | - |
| 1777652876 | 13.33° C | 62% | 1068.7 hPa | 0 mm | - | 290 W/m² | - |
| 1777652573 | 13.33° C | 62% | 1068.4 hPa | 0 mm | - | 301 W/m² | - |
| 1777652270 | 13.89° C | 62% | 1068.5 hPa | 0 mm | - | 351 W/m² | - |
| 1777651967 | 13.89° C | 62% | 1068.4 hPa | 0 mm | - | 385 W/m² | - |
| 1777651663 | 13.89° C | 64% | 1068.5 hPa | 0 mm | - | 409 W/m² | - |
| 1777651361 | 13.33° C | 65% | 1068 hPa | 0 mm | - | 398 W/m² | - |
| 1777651058 | 13.33° C | 68% | 1068.3 hPa | 0 mm | - | 392 W/m² | - |
| 1777650755 | 13.33° C | 67% | 1068.3 hPa | 0 mm | - | 378 W/m² | - |
| 1777650451 | 13.33° C | 67% | 1068.1 hPa | 0 mm | - | 388 W/m² | - |
| 1777650149 | 12.78° C | 68% | 1068.1 hPa | 0 mm | - | 397 W/m² | - |
| 1777649846 | 13.33° C | 68% | 1068 hPa | 0 mm | - | 352 W/m² | - |
| 1777649543 | 12.78° C | 71% | 1068 hPa | 0 mm | - | 385 W/m² | - |
| 1777649240 | 12.78° C | 71% | 1068.1 hPa | 0 mm | - | 509 W/m² | - |
| 1777648937 | 12.78° C | 72% | 1068.1 hPa | 0 mm | - | 302 W/m² | - |
| 1777648634 | 12.78° C | 74% | 1068 hPa | 0 mm | - | 347 W/m² | - |
| 1777648330 | 12.22° C | 74% | 1068 hPa | 0 mm | - | 469 W/m² | - |
| 1777648027 | 12.22° C | 76% | 1067.8 hPa | 0 mm | - | 510 W/m² | - |
| 1777647723 | 11.67° C | 77% | 1067.8 hPa | 0 mm | - | 415 W/m² | - |
| 1777647419 | 11.67° C | 78% | 1067.8 hPa | 0 mm | - | 365 W/m² | - |
| 1777647117 | 11.67° C | 79% | 1067.5 hPa | 0 mm | - | 365 W/m² | - |
| 1777646813 | 11.67° C | 81% | 1067.6 hPa | 0 mm | - | 315 W/m² | - |
| 1777646508 | 11.11° C | 82% | 1067.4 hPa | 0 mm | - | 292 W/m² | - |
| 1777646204 | 11.11° C | 82% | 1067.5 hPa | 0 mm | - | 301 W/m² | - |
| 1777645902 | 11.11° C | 82% | 1067.6 hPa | 0 mm | - | 250 W/m² | - |
* Rain latest hour (hover to see other rain measurements)
** Current wind speed in m/s (hover to see current wind gust speed)